DELTA 1 DEB, 42080

Orbit data source: Space-Track

DELTA 1 DEB, 42080 is space debris in SSO originally from a launch on Sun, 15 Dec 1968 UTC launched from the Air Force Western Test Range (AFWTR). Debris objects in space refer to the collection of defunct objects orbiting the Earth. Examples of debris include non-operational satellites, rocket bodies, and fragments generated from explosions, collisions, or faulty payload assembly.

Loading next visibility...
Identifier
42080, 1968-114G
Orbit
SSO
Country
Flag of USUS
Related business
Manufacturer
Aerojet
Mission
Spacecraft
Bus & Motor
Unknown
Mass
Unknown
Launch date (UTC)
1968-12-15 (58 years ago)
Launch vehicle
Unknown
Launch site
Air Force Western Test Range (AFWTR)
Object type
Payload
Rocket body
Debris
Shape & HBR
Unknown shape, 0.1 m
Radar Cross Section
Medium (>0.1 m² and <1 m²)

Expand to show TLE details & history
Last TLE update: 6 days ago

TLE from 6 days ago
0 DELTA 1 DEB
1 42080U 68114G   26167.63831315 -.00000036  00000-0  61128-4 0  9998
2 42080 101.8271  99.9840 0067305 212.9149 269.7549 12.39298489568549
Epoch: 2026-06-16T15:19Z
TLE epoch observation values (Epoch: 2026-06-16T15:19:10.256Z)
Latitude
56.29098°
Longitude
163.4847°
Altitude
1,519.349 km
Speed
7.111 km/s
True Right ascension
19h 52m 44s
True Declination
56° 08' 51"
Sunlit
Object was in daylight at epoch
Visualization orbit readout
Latitude
Unknown
Longitude
Unknown
Altitude
Unknown
Speed
Unknown
Apparent Right ascension
Unknown
Apparent Declination
Unknown
Sunlit
N/A
Visualization observer readout
Local Sidereal Time
21:43:30
Azimuth
Unknown
Elevation
Unknown
Doppler factor
Unknown
Orbital elements
Apogee altitude
1,560.215 km
Perigee altitude
1,454.072 km
Semi-major axis
7,885.281 km
Eccentricity
0.00673
Inclination
101.8271°
RAAN
99.984°
Arg. of periapsis
212.9149°
True anomaly
268.9837°
Mean anomaly
269.7549°
Eccentric anomaly
269.36929°
Mean motion
3.09968 °/min
Orbital period
116.14 mins
BSTAR
0.000061128
Loading maneuver chart data...
Computing Atmospheric mass density...
Loading historical data...
Loading historical data...
Loading historical data...
Loading historical data...
Loading historical data...
Loading historical data...
Loading historical data...

Documentation

Showing up to 5 results
|